Weather History for Jacksonville, FL

Change the Weather History Date:

Thursday, May 2, 2013

  Actual Average Record
Temperature  
Mean Temperature 69 °F 70 °F  
Max Temperature 71 °F 83 °F 95 °F (1990)
Min Temperature 67 °F 59 °F 47 °F (1941)
Degree Days  
Heating Degree Days 0 1  
Month to date heating degree days 0 2  
Since 1 July heating degree days 1238 1346  
Cooling Degree Days 4 6  
Month to date cooling degree days 8 12  
Year to date cooling degree days 227 208  
Growing Degree Days 18 (Base 50)    
Moisture  
Dew Point 66 °F    
Average Humidity 91    
Maximum Humidity 97    
Minimum Humidity 84    
Precipitation  
Precipitation 1.55 in 0.06 in 2.28 in (1964)
Month to date precipitation 1.55 0.12  
Year to date precipitation 13.40 13.20  
Snow  
Snow 0.00 in 0.00 in 0.00 in (2002)
Month to date snowfall 0.0 0.0  
Since 1 July snowfall 0.0 T  
Snow Depth 0.00 in    
Sea Level Pressure  
Sea Level Pressure 29.98 in    
Wind  
Wind Speed 14 mph (ENE)    
Max Wind Speed 26 mph    
Max Gust Speed 32 mph    
Visibility 4 miles    
Events Rain    
T = Trace of Precipitation, MM = Missing Value Source: NWS Daily Summary

Daily Weather History Graph

Daily Weather History Graph

Search for Another Location

Airport:

Trip Planner

Search our weather history database for the weather conditions in past years. The results will help you decide how hot, cold, wet, or windy it might be!

Date:

Astronomy

May. 02, 2013 Rise Set
Actual Time 6:42 AM EDT 8:05 PM EDT
Civil Twilight 6:16 AM EDT 8:31 PM EDT
Nautical Twilight 5:46 AM EDT 9:01 PM EDT
Astronomical Twilight 5:14 AM EDT 9:33 PM EDT
Moon 1:57 AM EDT (5/2) 1:22 PM EDT (5/2)
Length of Visible Light 14h 14m
Length of Day
13h 23m
Waning Gibbous, 48% of the Moon is Illuminated
May 2
Waning Gibbous
May 9
New
May 18
First Quarter
May 25
Full
May 31
Last Quarter

Hourly Weather History & Observations

Time (EDT) Temp. Dew Point Humidity Pressure Visibility Wind Dir Wind Speed Gust Speed Precip Events Conditions
12:56 AM 66.9 °F 64.9 °F 93% 30.04 in 10.0 mi NNE 10.4 mph - 0.00 in   Overcast
1:18 AM 66.2 °F 64.4 °F 94% 30.03 in 9.0 mi NNE 11.5 mph - N/A   Overcast
1:56 AM 68.0 °F 64.9 °F 90% 30.02 in 10.0 mi NNE 11.5 mph - N/A   Overcast
2:56 AM 68.0 °F 66.0 °F 93% 29.99 in 10.0 mi NE 12.7 mph - N/A   Overcast
3:56 AM 68.0 °F 66.0 °F 93% 29.99 in 9.0 mi NNE 12.7 mph - N/A   Overcast
4:56 AM 69.1 °F 66.0 °F 90% 29.98 in 10.0 mi NNE 8.1 mph - N/A   Overcast
5:56 AM 68.0 °F 66.0 °F 93% 29.98 in 7.0 mi NE 12.7 mph - 0.02 in Rain Light Rain
6:56 AM 68.0 °F 66.0 °F 93% 29.98 in 4.0 mi ENE 12.7 mph - 0.14 in Rain Rain
7:56 AM 70.0 °F 66.9 °F 90% 30.00 in 6.0 mi ENE 11.5 mph - 0.03 in   Overcast
8:47 AM 69.8 °F 66.2 °F 88% 30.01 in 6.0 mi ENE 12.7 mph 21.9 mph 0.00 in   Overcast
8:56 AM 70.0 °F 66.9 °F 90% 30.01 in 7.0 mi ENE 15.0 mph - 0.00 in Rain Light Rain
9:33 AM 69.8 °F 66.2 °F 88% 30.00 in 2.0 mi NE 11.5 mph - 0.02 in Rain Rain
9:41 AM 69.8 °F 66.2 °F 88% 30.00 in 2.0 mi NE 10.4 mph - 0.04 in Rain Light Rain
9:56 AM 69.1 °F 66.9 °F 93% 30.01 in 2.0 mi ENE 11.5 mph - 0.06 in Rain Rain
10:56 AM 69.1 °F 66.9 °F 93% 30.01 in 2.0 mi East 18.4 mph 24.2 mph 0.21 in Rain Rain
11:56 AM 68.0 °F 66.0 °F 93% 30.03 in 2.0 mi East 11.5 mph - 0.23 in Rain Heavy Rain
12:28 PM 68.0 °F 64.4 °F 88% 30.02 in 2.0 mi East 13.8 mph 19.6 mph 0.14 in Rain Rain
12:56 PM 68.0 °F 64.9 °F 90% 30.01 in 2.0 mi East 15.0 mph 21.9 mph 0.20 in Rain Rain
1:51 PM 69.8 °F 66.2 °F 88% 30.00 in 3.0 mi East 9.2 mph - 0.10 in Rain Light Rain
1:56 PM 69.1 °F 66.9 °F 93% 30.00 in 3.0 mi East 9.2 mph - 0.10 in Rain Light Rain
2:25 PM 69.8 °F 66.2 °F 88% 29.99 in 2.0 mi East 11.5 mph - 0.03 in Rain Rain
2:35 PM 69.8 °F 66.2 °F 88% 29.99 in 2.0 mi East 9.2 mph - 0.07 in Rain Rain
2:56 PM 70.0 °F 68.0 °F 93% 29.99 in 2.0 mi ENE 13.8 mph - 0.11 in Rain Light Rain
3:27 PM 69.8 °F 66.2 °F 88% 29.98 in 2.0 mi East 11.5 mph - 0.03 in Rain Light Rain
3:48 PM 69.8 °F 66.2 °F 88% 29.97 in 2.0 mi East 16.1 mph 24.2 mph 0.06 in Rain Rain
3:56 PM 69.1 °F 66.9 °F 93% 29.97 in 2.0 mi East 12.7 mph 23.0 mph 0.07 in Rain Rain
4:42 PM 69.8 °F 66.2 °F 88% 29.96 in 2.0 mi ENE 13.8 mph - 0.02 in Rain Light Rain
4:56 PM 70.0 °F 66.9 °F 90% 29.96 in 2.0 mi ENE 13.8 mph - 0.02 in Rain Light Rain
5:11 PM 69.8 °F 66.2 °F 88% 29.95 in 2.0 mi East 13.8 mph - 0.00 in Rain Light Rain
5:43 PM 69.8 °F 66.2 °F 88% 29.95 in 2.0 mi ENE 12.7 mph 20.7 mph 0.01 in Rain Light Rain
5:56 PM 69.1 °F 66.9 °F 93% 29.95 in 2.0 mi ENE 15.0 mph - 0.02 in Rain Rain
6:21 PM 69.8 °F 66.2 °F 88% 29.94 in 2.0 mi ENE 12.7 mph - 0.03 in Rain Light Rain
6:56 PM 69.1 °F 66.0 °F 90% 29.95 in 2.0 mi ENE 15.0 mph - 0.05 in Rain Light Rain
7:02 PM 69.8 °F 66.2 °F 88% 29.95 in 3.0 mi ENE 15.0 mph - 0.00 in Rain Light Rain
7:56 PM 69.1 °F 64.9 °F 87% 29.94 in 3.0 mi ENE 13.8 mph - 0.03 in Rain Light Rain
8:17 PM 69.8 °F 66.2 °F 88% 29.95 in 3.0 mi East 17.3 mph 25.3 mph 0.00 in Rain Light Rain
8:56 PM 69.1 °F 64.9 °F 87% 29.95 in 3.0 mi ENE 18.4 mph 26.5 mph 0.01 in   Overcast
9:56 PM 68.0 °F 66.0 °F 93% 29.95 in 6.0 mi ENE 15.0 mph - 0.00 in Rain Light Rain
10:56 PM 68.0 °F 64.0 °F 87% 29.96 in 6.0 mi ENE 17.3 mph 29.9 mph 0.04 in Rain Light Rain
11:56 PM 68.0 °F 64.9 °F 90% 29.95 in 5.0 mi ENE 18.4 mph - 0.09 in Rain Rain